sat.trackr.live / text

‹ back to catalog

STARLINK-36256

NORAD 67103 · 2025-299B

PAYLOAD ACTIVE UNKNOWN

§ Identity

Operator
Country
US
Launch date
2025-12-15
Launch site
AFETR
Launch vehicle
Mass (kg)
RCS (m²)

Purposes: comms

External: N2YO · Heavens-Above · Gunter

§ Orbital elements

Epoch: 2026-05-24T23:31:49.577952Z

Period
94.27 min
Inclination
43.0028°
Eccentricity
0.0001142
Mean motion
15.27594734 rev/d
Perigee alt
482.2 km
Apogee alt
483.8 km
Semi-major
6,861.1 km
B*
5.6903e-4
RAAN
98.1722°
Arg perigee
264.3059°
Mean anomaly
95.7662°
Rev number
2,478

§ Raw data

STARLINK-362561 67103U 25299B   26144.98043493  .00015436  00000+0  56903-3 0  99952 67103  43.0028  98.1722 0001142 264.3059  95.7662 15.27594734 24785

JSON: /api/v1/satellites/67103 · /tle

For live sub-satellite position, see the globe view (requires WebGL).

§ Visibility from observer

Set your observer location to see the next 7 days of passes ≥ 10°. The values pass through the URL so the page stays shareable.

No JS? Fill the form by hand. The geolocation button needs JavaScript.